Location: Oberkirch
(48.5323°N, 8.0787°E)
Time: 02:22:48
(UTC+00:00)

AO-85 - Pass Details

Date: 14 March 2026
Orbit: 507 x 686 km, 64.8° (Epoch: 12 April)

Event Time Altitude Azimuth Distance (km) Brightness Sun altitude
Exits shadow 03:56:20 22° 191° (S) 1,208 ? -18.3°
Maximum altitude 03:58:40 51° 123° (ESE) 668 ? -18.0°
Drops below altitude 10° 04:02:27 10° 47° (NE) 1,749 ? -17.4°
Sets 04:04:38 0° 43° (NE) 2,628 ? -17.0°
